Stündliche Wetter Otlowiec

Heute, 10 April, Samstag

Zeit Temperatur Niederschläge Wind Luftdruck Luftfeuchtigkeit
00:00 +3°C° 0 mm 3 m/S 751 mmHg 80%
01:00 +3°C° 0 mm 3 m/S 751 mmHg 83%
02:00 +3°C° 0 mm 2 m/S 751 mmHg 85%
03:00 +3°C° 0 mm 2 m/S 751 mmHg 87%
04:00 +3°C° 0 mm 2 m/S 751 mmHg 89%
05:00 +4°C° 0 mm 2 m/S 752 mmHg 86%
06:00 +4°C° 0 mm 2 m/S 752 mmHg 84%
07:00 +5°C° 0 mm 2 m/S 752 mmHg 81%
08:00 +6°C° 0.1 mm 2 m/S 752 mmHg 78%
09:00 +7°C° 0.1 mm 2 m/S 753 mmHg 76%
10:00 +8°C° 0.1 mm 2 m/S 753 mmHg 73%
11:00 +8°C° 0.5 mm 2 m/S 753 mmHg 79%
12:00 +7°C° 0.5 mm 2 m/S 754 mmHg 84%
13:00 +6°C° 0.5 mm 2 m/S 754 mmHg 89%
14:00 +6°C° 0.2 mm 2 m/S 754 mmHg 90%
15:00 +6°C° 0.2 mm 2 m/S 754 mmHg 90%
16:00 +6°C° 0.2 mm 2 m/S 755 mmHg 90%
17:00 +5°C° 0 mm 2 m/S 755 mmHg 91%
18:00 +5°C° 0 mm 2 m/S 755 mmHg 92%
19:00 +5°C° 0 mm 2 m/S 755 mmHg 93%
20:00 +5°C° 0 mm 2 m/S 756 mmHg 93%
21:00 +4°C° 0 mm 2 m/S 756 mmHg 93%
22:00 +4°C° 0 mm 2 m/S 756 mmHg 94%
23:00 +4°C° 0 mm 2 m/S 756 mmHg 94%

Morgen, 11 April, Sonntag

Zeit Temperatur Niederschläge Wind Luftdruck Luftfeuchtigkeit
00:00 +4°C° 0 mm 2 m/S 756 mmHg 94%
01:00 +4°C° 0 mm 2 m/S 756 mmHg 94%
02:00 +4°C° 0 mm 2 m/S 756 mmHg 94%
03:00 +5°C° 0 mm 2 m/S 756 mmHg 94%
04:00 +4°C° 0 mm 3 m/S 756 mmHg 94%
05:00 +4°C° 0 mm 3 m/S 756 mmHg 94%
06:00 +5°C° 0 mm 3 m/S 756 mmHg 93%
07:00 +7°C° 0 mm 3 m/S 756 mmHg 92%
08:00 +7°C° 0 mm 4 m/S 755 mmHg 85%
09:00 +10°C° 0 mm 4 m/S 755 mmHg 79%
10:00 +12°C° 0 mm 5 m/S 755 mmHg 72%
11:00 +13°C° 0 mm 5 m/S 755 mmHg 67%
12:00 +15°C° 0 mm 6 m/S 754 mmHg 61%
13:00 +16°C° 0 mm 6 m/S 754 mmHg 56%
14:00 +16°C° 0 mm 6 m/S 754 mmHg 55%
15:00 +16°C° 0 mm 5 m/S 754 mmHg 54%
16:00 +16°C° 0 mm 5 m/S 753 mmHg 54%
17:00 +15°C° 0 mm 5 m/S 753 mmHg 59%
18:00 +13°C° 0 mm 4 m/S 754 mmHg 63%
19:00 +12°C° 0 mm 3 m/S 754 mmHg 68%
20:00 +11°C° 0 mm 3 m/S 754 mmHg 68%
21:00 +11°C° 0 mm 3 m/S 754 mmHg 68%
22:00 +11°C° 0 mm 3 m/S 754 mmHg 69%
23:00 +10°C° 0 mm 3 m/S 754 mmHg 71%

übermorgen, 12 April, Montag

Zeit Temperatur Niederschläge Wind Luftdruck Luftfeuchtigkeit
00:00 +10°C° 0 mm 3 m/S 754 mmHg 74%
01:00 +9°C° 0 mm 3 m/S 753 mmHg 76%
02:00 +9°C° 0 mm 3 m/S 753 mmHg 78%
03:00 +10°C° 0 mm 4 m/S 753 mmHg 79%
04:00 +10°C° 0 mm 4 m/S 753 mmHg 80%
05:00 +10°C° 0 mm 4 m/S 753 mmHg 81%
06:00 +10°C° 0 mm 4 m/S 753 mmHg 82%
07:00 +10°C° 0 mm 4 m/S 753 mmHg 83%
08:00 +11°C° 0 mm 4 m/S 753 mmHg 78%
09:00 +12°C° 0 mm 4 m/S 753 mmHg 73%
10:00 +14°C° 0 mm 4 m/S 753 mmHg 67%
11:00 +14°C° 0 mm 4 m/S 753 mmHg 66%
12:00 +14°C° 0 mm 3 m/S 753 mmHg 65%
13:00 +15°C° 0 mm 2 m/S 753 mmHg 63%
14:00 +15°C° 0 mm 2 m/S 753 mmHg 64%
15:00 +15°C° 0 mm 2 m/S 753 mmHg 65%
16:00 +15°C° 0 mm 2 m/S 753 mmHg 65%
17:00 +12°C° 0 mm 3 m/S 753 mmHg 70%
18:00 +8°C° 0 mm 4 m/S 754 mmHg 75%
19:00 +6°C° 0 mm 5 m/S 755 mmHg 80%
20:00 +5°C° 0 mm 5 m/S 755 mmHg 80%
21:00 +5°C° 0 mm 5 m/S 756 mmHg 79%
22:00 +3°C° 0 mm 5 m/S 756 mmHg 79%
23:00 +3°C° 0 mm 5 m/S 756 mmHg 79%

13 April, Dienstag

Zeit Temperatur Niederschläge Wind Luftdruck Luftfeuchtigkeit
00:00 +4°C° 0 mm 4 m/S 757 mmHg 79%
01:00 +3°C° 0 mm 4 m/S 757 mmHg 79%
02:00 +3°C° 0 mm 4 m/S 757 mmHg 77%
03:00 +3°C° 0 mm 4 m/S 757 mmHg 76%
04:00 +3°C° 0 mm 4 m/S 757 mmHg 74%
05:00 +1°C° 0.3 mm 4 m/S 757 mmHg 81%
06:00 +1°C° 0.3 mm 4 m/S 758 mmHg 87%
07:00 0°C° 0.3 mm 4 m/S 758 mmHg 93%
08:00 0°C° 0.8 mm 4 m/S 758 mmHg 93%
09:00 +1°C° 0.8 mm 3 m/S 759 mmHg 93%
10:00 +1°C° 0.8 mm 3 m/S 759 mmHg 93%
11:00 +2°C° 0.3 mm 3 m/S 759 mmHg 86%
12:00 +3°C° 0.3 mm 3 m/S 759 mmHg 79%
13:00 +4°C° 0.3 mm 3 m/S 759 mmHg 72%
14:00 +5°C° 0 mm 4 m/S 759 mmHg 68%
15:00 +5°C° 0 mm 4 m/S 758 mmHg 65%
16:00 +6°C° 0 mm 4 m/S 758 mmHg 62%
17:00 +5°C° 0 mm 4 m/S 758 mmHg 68%
18:00 +3°C° 0 mm 3 m/S 759 mmHg 75%
19:00 +2°C° 0 mm 3 m/S 759 mmHg 81%
20:00 +3°C° 0 mm 2 m/S 759 mmHg 82%
21:00 +3°C° 0 mm 2 m/S 759 mmHg 82%
22:00 +4°C° 0 mm 1 m/S 759 mmHg 82%
23:00 +3°C° 0 mm 2 m/S 759 mmHg 82%

14 April, Mittwoch

Zeit Temperatur Niederschläge Wind Luftdruck Luftfeuchtigkeit
00:00 +3°C° 0 mm 2 m/S 758 mmHg 82%
01:00 +3°C° 0 mm 2 m/S 758 mmHg 82%
02:00 +3°C° 0 mm 2 m/S 758 mmHg 82%
03:00 +2°C° 0 mm 2 m/S 758 mmHg 82%
04:00 +2°C° 0 mm 2 m/S 758 mmHg 81%
05:00 +3°C° 0 mm 2 m/S 758 mmHg 80%
06:00 +2°C° 0 mm 3 m/S 757 mmHg 78%
07:00 +3°C° 0 mm 3 m/S 757 mmHg 76%
08:00 +4°C° 0 mm 4 m/S 757 mmHg 70%
09:00 +5°C° 0 mm 5 m/S 757 mmHg 65%
10:00 +6°C° 0 mm 5 m/S 757 mmHg 59%
11:00 +6°C° 0.1 mm 5 m/S 757 mmHg 56%
12:00 +7°C° 0.1 mm 5 m/S 757 mmHg 52%
13:00 +7°C° 0.1 mm 5 m/S 757 mmHg 49%
14:00 +7°C° 0 mm 5 m/S 757 mmHg 50%
15:00 +7°C° 0 mm 6 m/S 757 mmHg 51%
16:00 +5°C° 0 mm 6 m/S 757 mmHg 52%
17:00 +5°C° 0 mm 5 m/S 757 mmHg 59%
18:00 +3°C° 0 mm 5 m/S 757 mmHg 65%
19:00 +1°C° 0 mm 4 m/S 758 mmHg 72%
20:00 +1°C° 0 mm 4 m/S 758 mmHg 74%
21:00 0°C° 0 mm 4 m/S 758 mmHg 77%
22:00 +1°C° 0 mm 3 m/S 758 mmHg 80%
23:00 -1°C° 0 mm 4 m/S 758 mmHg 81%

15 April, Donnerstag

Zeit Temperatur Niederschläge Wind Luftdruck Luftfeuchtigkeit
00:00 -1°C° 0 mm 4 m/S 758 mmHg 82%
01:00 -1°C° 0 mm 4 m/S 757 mmHg 84%
02:00 -1°C° 0 mm 4 m/S 757 mmHg 83%
03:00 0°C° 0 mm 4 m/S 757 mmHg 82%
04:00 0°C° 0 mm 5 m/S 757 mmHg 81%
05:00 0°C° 0 mm 5 m/S 758 mmHg 78%
06:00 +1°C° 0 mm 5 m/S 758 mmHg 74%
07:00 +2°C° 0 mm 6 m/S 758 mmHg 71%
08:00 +2°C° 0 mm 6 m/S 758 mmHg 66%
09:00 +3°C° 0 mm 7 m/S 758 mmHg 61%
10:00 +4°C° 0 mm 8 m/S 758 mmHg 55%
11:00 +4°C° 0 mm 8 m/S 758 mmHg 55%
12:00 +5°C° 0 mm 8 m/S 758 mmHg 54%
13:00 +5°C° 0 mm 9 m/S 758 mmHg 54%
14:00 +5°C° 0 mm 9 m/S 758 mmHg 59%
15:00 +5°C° 0 mm 8 m/S 758 mmHg 63%
16:00 +4°C° 0 mm 8 m/S 758 mmHg 68%
17:00 +4°C° 0 mm 8 m/S 758 mmHg 68%
18:00 +2°C° 0 mm 8 m/S 758 mmHg 68%
19:00 +1°C° 0 mm 8 m/S 758 mmHg 68%
20:00 +2°C° 0 mm 7 m/S 758 mmHg 71%
21:00 0°C° 0 mm 7 m/S 759 mmHg 73%
22:00 0°C° 0 mm 7 m/S 759 mmHg 75%
23:00 -1°C° 0 mm 7 m/S 759 mmHg 79%
Mehr zeigen

Wir brauchen deine Erlaubnis

Meteoprog und unser Service Anbieter werden persönliche Daten aufbewahren, so wie Cookies, Geräte Bezeichnung oder ähnliche Technologien von deinem Gerät und Prozess, so wie Persönliche Daten Inhalte und Werbungen, genauso wie social Media und den Verkehr zu analysieren.

  • Aufbewahrung und/oder Zugang zu deiner Geräte Informationen.

    Cookies, Geräte Bezeichnung oder andere Informationen, können aufbewahrt oder Zugang zu deinem Gerät erhalten, für den Grund, der oben angegeben wird.

  • Personalisierte Werbung und Inhalte, Messungen, Einblick in das Publikum und Produkt Entwicklung.

    Werbungen und Inhalte können personalisiert werden, basierend auf ein Profil. Mehr Daten können besser personalisierte Werbungen und Inhalte hinzufügen. Werbung und Inhalte können gezeigt und gemessen werden. Einblicke über das Publikum, welche die Werbung gesehen haben und den Inhalt, können abgeleitet werden. So wie Daten können genutzt werden, um es zu verbessern oder die Benutzer Erfahrung zu verbessern das System und die Software.

Wenn du “Ich stimme zu” klickst, erlaubst du uns, die Cookies zu benutzen die Geräte Bezeichnung, den Web oder ähnliche Technologien zu benutzen. Deine Settings, können in deinem Gerät bei deinem Browser geändert werden.

Für den bestimmten Zweck, berechtigten Interessen beruhen darauf, mehr als auf den Inhalt. Du kannst mehr darüber in unseren Privaten und Cookie Politik lesen.